Location: Larkspur
(54.4391°N, 113.7691°W)
Time: 12:33:06
(UTC+00:00)

METEOR M2 - Pass Details

Date: 03 December 2023
Orbit: 819 x 826 km, 98.4° (Epoch: 02 March)

Event Time Altitude Azimuth Distance (km) Brightness Sun altitude
Rises 00:11:47 0° 161° (SSE) 3,355 ? -7.9°
Reaches altitude 10° 00:14:07 10° 161° (SSE) 2,426 ? -8.2°
Maximum altitude 00:19:30 87° 74° (ENE) 836 ? -8.9°
Drops below altitude 10° 00:24:56 10° 345° (NNW) 2,442 ? -9.6°
Sets 00:27:18 0° 345° (NNW) 3,378 ? -9.9°
